[[{"header":{"parameterUnit":"m.s-1","parameterCategory":1,"la1":30.2991,"la2":30.254,"lo1":-89.0895,"lo2":-89.0444,"dy":0.0017,"dx":0.0017,"nx":28,"ny":28,"refTime":"2024-08-22T09:00:00:Z","depth":0,"parameterNumber":2,"parameterNumberName":"U-component_of_WINDS"},"data":[0,0,0,0,0,0,0,0,0,0,0,0,0,0,0,0,0,0,0,0,0,0,0,0,0,0,0,0,0,0,0,0,0,0,0,0,0,0,0,0,0,0,0,0,0,0,0,0,0,0,0,0,0,0,0,0,0,0,-0.9973,-0.9973,0,-1.0009,-1.001,-1.001,-0.9973,-0.9972,-0.997,-0.9969,-1.0006,-1.0008,-1.0011,0,0,0,0,0,0,0,0,0,0,0,0,0,-0.9869,-0.9872,-0.9973,-0.9973,-0.9973,-1.0009,-1.001,-1.001,-0.9973,-0.9972,-0.997,-0.9968,-1.0005,-1.0008,-1.0011,0,0,0,0,0,0,0,0,0,0,0,0,0,-0.9911,-0.9872,-0.9972,-0.9959,-0.9959,-1.0009,-1.001,-1.001,-0.9974,-0.9971,-0.9969,-0.9967,-1.0004,-1.0008,-1.0011,-1.0076,0,0,-1.0022,-1.0024,0,0,0,0,0,0,0,0,-0.9909,-0.9915,-0.9961,-0.996,-0.996,-0.9984,-0.9987,-1.0032,-0.9974,-0.9968,-0.9969,-0.9966,-1.0001,-1.0004,-1.0016,-1.0078,-1.008,-1.0022,-1.0024,-1.0026,-1.0027,0,0,0,0,0,0,0,-0.9906,-0.9913,-0.9987,-0.9962,-0.9961,-0.9951,-0.9955,-0.9995,-0.9996,-0.9968,-0.9966,-0.9971,-1.0,-1.0013,-1.0017,-1.008,-1.0022,-1.0025,-1.0028,-1.0029,-1.0197,-1.0199,0,0,0,0,0,0,-0.9905,-0.9911,-0.9986,-0.9988,-0.9928,-0.9955,-0.9959,-0.9979,-0.9995,-0.9996,-0.9972,-0.9969,-1.0008,-1.0012,-1.0018,-1.0094,-1.0026,-1.0029,-1.0031,-1.0194,-1.0197,-1.02,0,0,0,0,0,0,-0.9902,-0.9912,-0.9984,-0.9949,-0.9957,-0.9959,-0.9981,-0.998,-0.9993,-0.9999,-0.9998,-0.9985,-1.0006,-1.0013,-1.0062,-1.0095,-1.0031,-1.0034,-1.0191,-1.0195,-1.0198,-1.0249,0,0,0,0,0,0,-0.99,-0.9911,-0.9936,-0.995,-0.9959,-1.0029,-0.9984,-0.9983,-0.9999,-0.9995,-1.0011,-1.0011,-1.0005,-1.0057,-1.0065,-1.0099,-1.0037,-1.0189,-1.0193,-1.0197,-1.0244,-1.0254,-1.0262,0,0,0,0,0,-0.9896,-0.9949,-0.9938,-0.9947,-0.9991,-1.0031,-1.0036,-1.0028,-1.0002,-1.0027,-1.003,-1.0011,-1.009,-1.0062,-1.0071,-1.0107,-1.0186,-1.0192,-1.0197,-1.024,-1.0252,-1.0262,0,0,0,0,0,0,-0.994,-0.9951,-0.9938,-0.9997,-1.0013,-1.0024,-1.0056,-1.004,-1.0064,-1.0059,-1.0047,-1.0051,-1.0103,-1.011,-1.0078,-1.017,-1.0134,-1.0141,-1.0164,-1.0175,-1.0184,-1.0181,-1.004,0,0,0,0,0,-0.9956,-0.9988,-0.9995,-1.0047,-1.0055,-1.0054,-1.0071,-1.0063,-1.0079,-1.0086,-1.0093,-1.0109,-1.0137,-1.0156,-1.0183,-1.0245,-1.0247,-1.0274,-1.0282,-1.0289,-1.0296,-1.0328,-1.034,-1.0217,-1.0217,-1.0217,0,0,-0.9991,-1.0001,-1.0021,-1.0056,-1.0067,-1.01,-1.006,-1.0096,-1.012,-1.0091,-1.0138,-1.0144,-1.0161,-1.0216,-1.0241,-1.0224,-1.033,-1.0296,-1.0302,-1.0305,-1.0335,-1.0347,-1.0357,-1.0221,-1.022,-1.0219,0,0,-1.007,-1.0081,-1.0125,-1.0137,-1.0154,-1.0153,-1.0163,-1.0177,-1.0179,-1.0226,-1.0205,-1.0232,-1.0282,-1.0295,-1.0308,-1.0391,-1.0373,-1.04,-1.0446,-1.0477,-1.0487,-1.0495,-1.0525,-1.0535,-1.0406,-1.0406,-1.0406,0,-1.0111,-1.0159,-1.0149,-1.0187,-1.0202,-1.0177,-1.0221,-1.0233,-1.0258,-1.027,-1.0249,-1.031,-1.032,-1.0378,-1.0398,-1.0409,-1.042,-1.0398,-1.0486,-1.0495,-1.0503,-1.053,-1.0541,-1.0409,-1.0409,-1.0409,-1.0408,0,-1.0208,-1.0242,-1.0275,-1.03,-1.0319,-1.0359,-1.0355,-1.0375,-1.0365,-1.0366,-1.0413,-1.0424,-1.0452,-1.0465,-1.0456,-1.0521,-1.051,-1.0488,-1.0452,-1.0518,-1.0543,-1.0554,-1.0414,-1.0413,-1.0412,-1.0411,0,0,-1.0317,-1.0335,-1.0347,-1.0358,-1.0375,-1.0401,-1.044,-1.0467,-1.0484,-1.0502,-1.0534,-1.0576,-1.0556,-1.0571,-1.0563,-1.059,-1.0655,-1.0565,-1.0565,-1.0581,-1.0727,-1.0743,-1.0755,-1.0643,-1.0645,-1.0647,-1.0725,0,-1.0396,-1.0464,-1.0456,-1.052,-1.0551,-1.0527,-1.0561,-1.0575,-1.0576,-1.0602,-1.0603,-1.0632,-1.0604,-1.0612,-1.0639,-1.0641,-1.0684,-1.0636,-1.0672,-1.0674,-1.0669,-1.0769,-1.0786,-1.0859,-1.0735,-1.0737,-1.0738,0,-1.0499,-1.052,-1.0588,-1.0599,-1.0612,-1.0642,-1.0666,-1.0691,-1.0706,-1.0705,-1.0721,-1.0707,-1.0746,-1.0708,-1.0761,-1.0728,-1.0742,-1.0746,-1.0748,-1.0751,-1.071,-1.0774,-1.0883,-1.0894,-1.0754,-1.0752,-1.0751,0,-1.0571,-1.0617,-1.0663,-1.0673,-1.0687,-1.0709,-1.0716,-1.0729,-1.0745,-1.0766,-1.0776,-1.0801,-1.0815,-1.0834,-1.0827,-1.0801,-1.088,-1.0843,-1.088,-1.088,-1.0898,-1.0897,-1.101,-1.0908,-1.0907,-1.0907,-1.0907,0,-1.066,-1.0703,-1.0695,-1.0724,-1.077,-1.0759,-1.0805,-1.0809,-1.0821,-1.0849,-1.083,-1.0857,-1.0846,-1.0872,-1.0867,-1.0911,-1.0917,-1.0917,-1.0915,-1.0919,-1.0919,-1.0928,-1.0922,-1.091,-1.091,-1.0909,-1.0908,0,-1.0749,-1.0746,-1.0794,-1.0804,-1.0807,-1.0841,-1.0849,-1.0875,-1.0875,-1.0911,-1.0919,-1.0918,-1.0947,-1.0942,-1.0975,-1.0972,-1.1026,-1.1018,-1.1021,-1.1019,-1.1056,-1.1053,-1.1179,-1.1195,-1.1083,-1.1084,-1.1085,0,-1.0807,-1.0838,-1.0851,-1.0869,-1.0877,-1.0906,-1.0923,-1.0913,-1.0931,-1.095,-1.0974,-1.1001,-1.1023,-1.1071,-1.1073,-1.1098,-1.109,-1.1133,-1.1094,-1.1096,-1.109,-1.1088,-1.1091,-1.114,-1.1142,-1.1143,-1.1144,0,-1.0909,-1.0905,-1.093,-1.0954,-1.0974,-1.0993,-1.1009,-1.1025,-1.1016,-1.1037,-1.1067,-1.1084,-1.1117,-1.1145,-1.1167,-1.1174,-1.1157,-1.1156,-1.1166,-1.1169,-1.117,-1.1169,-1.1042,-1.1153,-1.1152,-1.1151,-1.1151,-1.115,-1.0983,-1.101,-1.1023,-1.1051,-1.1062,-1.1078,-1.1103,-1.1105,-1.113,-1.1156,-1.1149,-1.1182,-1.1195,-1.1224,-1.1233,-1.1259,-1.1243,-1.1257,-1.1261,-1.1265,-1.1269,-1.1166,-1.1263,-1.1263,-1.1263,-1.1262,-1.1262,0,-1.1084,-1.1091,-1.1117,-1.114,-1.1162,-1.1144,-1.1161,-1.118,-1.121,-1.1224,-1.1245,-1.1279,-1.1305,-1.1309,-1.1334,-1.1353,-1.1346,-1.136,-1.1358,-1.136,-1.1282,-1.1271,-1.1365,-1.1365,-1.1365,-1.1365,-1.1365,-1.1365,-1.1139,-1.1183,-1.1181,-1.123,-1.1237,-1.127,-1.1281,-1.1295,-1.1305,-1.1344,-1.1365,-1.1368,-1.1377,-1.1402,-1.1425,-1.1425,-1.1435,-1.1452,-1.1449,-1.1376,-1.1366,-1.1356,-1.1345,-1.1454,-1.1454,-1.1525,-1.1525,-1.1526]},{"header":{"parameterUnit":"m.s-1","parameterCategory":1,"la1":30.2991,"la2":30.254,"lo1":-89.0895,"lo2":-89.0444,"dy":0.0017,"dx":0.0017,"nx":28,"ny":28,"refTime":"2024-08-22T09:00:00:Z","depth":0,"parameterNumber":3,"parameterNumberName":"V-component_of_WINDS"},"data":[0,0,0,0,0,0,0,0,0,0,0,0,0,0,0,0,0,0,0,0,0,0,0,0,0,0,0,0,0,0,0,0,0,0,0,0,0,0,0,0,0,0,0,0,0,0,0,0,0,0,0,0,0,0,0,0,0,0,-3.2825,-3.2826,0,-3.2928,-3.2929,-3.293,-3.2921,-3.2919,-3.2918,-3.2916,-3.3018,-3.3023,-3.3027,0,0,0,0,0,0,0,0,0,0,0,0,0,-3.2615,-3.2619,-3.2824,-3.2826,-3.2827,-3.2928,-3.2929,-3.2931,-3.2921,-3.2919,-3.2917,-3.2915,-3.3017,-3.3022,-3.3027,0,0,0,0,0,0,0,0,0,0,0,0,0,-3.2711,-3.262,-3.2824,-3.2835,-3.2837,-3.2927,-3.2929,-3.2931,-3.2921,-3.2919,-3.2917,-3.2915,-3.3015,-3.3022,-3.3028,-3.3114,0,0,-3.3047,-3.305,0,0,0,0,0,0,0,0,-3.2706,-3.2719,-3.2832,-3.2834,-3.2836,-3.2909,-3.2893,-3.2992,-3.2922,-3.2889,-3.2916,-3.2913,-3.2984,-3.2993,-3.3017,-3.3119,-3.3123,-3.3048,-3.3051,-3.3054,-3.3056,0,0,0,0,0,0,0,-3.2699,-3.2714,-3.2865,-3.2833,-3.2836,-3.2833,-3.2844,-3.2912,-3.2948,-3.2892,-3.2891,-3.2904,-3.2985,-3.3011,-3.3019,-3.3125,-3.3047,-3.3053,-3.3057,-3.3059,-3.3302,-3.3304,0,0,0,0,0,0,-3.269,-3.2709,-3.2862,-3.2868,-3.2764,-3.2839,-3.2851,-3.2888,-3.2948,-3.2954,-3.2906,-3.2903,-3.3001,-3.3012,-3.3023,-3.3127,-3.3054,-3.306,-3.3064,-3.3299,-3.3302,-3.3305,0,0,0,0,0,0,-3.2686,-3.2704,-3.2858,-3.2789,-3.2808,-3.2845,-3.2887,-3.2891,-3.2918,-3.2958,-3.2964,-3.2926,-3.3,-3.3014,-3.3092,-3.3131,-3.3063,-3.3069,-3.3296,-3.33,-3.3304,-3.3337,0,0,0,0,0,0,-3.268,-3.2703,-3.2737,-3.2789,-3.2812,-3.2926,-3.2889,-3.2895,-3.2929,-3.2927,-3.2979,-3.2986,-3.2999,-3.3082,-3.3098,-3.3138,-3.3073,-3.3293,-3.3298,-3.3303,-3.3333,-3.3342,-3.335,0,0,0,0,0,-3.2673,-3.2741,-3.2739,-3.2757,-3.2855,-3.2928,-3.2941,-3.2956,-3.2932,-3.2966,-3.2992,-3.2984,-3.3124,-3.309,-3.3108,-3.3151,-3.329,-3.3296,-3.3302,-3.3329,-3.334,-3.335,0,0,0,0,0,0,-3.2691,-3.2749,-3.2746,-3.2834,-3.2877,-3.2927,-3.297,-3.2968,-3.3017,-3.3012,-3.3028,-3.304,-3.3118,-3.3142,-3.3103,-3.3237,-3.3204,-3.3214,-3.3218,-3.3229,-3.3238,-3.323,-3.3079,0,0,0,0,0,-3.2706,-3.2762,-3.2808,-3.2881,-3.2903,-3.2933,-3.2965,-3.2974,-3.3018,-3.3035,-3.3067,-3.3109,-3.3162,-3.3197,-3.3249,-3.3336,-3.3347,-3.3375,-3.3383,-3.339,-3.3398,-3.3445,-3.3458,-3.3325,-3.3325,-3.3325,0,0,-3.2736,-3.2774,-3.2808,-3.2886,-3.292,-3.2976,-3.2948,-3.3009,-3.305,-3.3044,-3.3119,-3.3144,-3.3192,-3.3275,-3.3313,-3.3297,-3.3437,-3.3397,-3.3402,-3.3407,-3.3453,-3.3465,-3.3476,-3.3329,-3.3328,-3.3328,0,0,-3.282,-3.2855,-3.292,-3.2954,-3.3006,-3.3026,-3.3041,-3.3092,-3.3108,-3.3185,-3.3181,-3.323,-3.3322,-3.3356,-3.3385,-3.3482,-3.3476,-3.3498,-3.3542,-3.3588,-3.3599,-3.3608,-3.3642,-3.3654,-3.3506,-3.3506,-3.3507,0,-3.2851,-3.2937,-3.2953,-3.3015,-3.3048,-3.3046,-3.3111,-3.3144,-3.3209,-3.3232,-3.3214,-3.333,-3.3362,-3.3452,-3.3476,-3.35,-3.3517,-3.3492,-3.3596,-3.3606,-3.3615,-3.3647,-3.366,-3.3509,-3.3509,-3.3508,-3.3508,0,-3.2971,-3.3031,-3.3077,-3.3141,-3.318,-3.3243,-3.3268,-3.3305,-3.331,-3.3331,-3.3408,-3.3447,-3.3506,-3.3528,-3.3533,-3.3619,-3.3608,-3.3593,-3.356,-3.363,-3.366,-3.3673,-3.3512,-3.3511,-3.3511,-3.351,0,0,-3.307,-3.3143,-3.3159,-3.3188,-3.3246,-3.3291,-3.3354,-3.3413,-3.3444,-3.3489,-3.3541,-3.3619,-3.3606,-3.3639,-3.3648,-3.3688,-3.3762,-3.3668,-3.367,-3.3684,-3.3858,-3.3869,-3.3883,-3.3758,-3.3761,-3.3763,-3.3854,0,-3.3159,-3.3271,-3.3287,-3.3385,-3.344,-3.3438,-3.3492,-3.3533,-3.3554,-3.3602,-3.3625,-3.368,-3.3659,-3.3679,-3.3719,-3.3744,-3.3797,-3.3738,-3.3805,-3.3808,-3.3793,-3.3899,-3.3911,-3.3995,-3.3866,-3.3868,-3.387,0,-3.3278,-3.3328,-3.3431,-3.3481,-3.3504,-3.3553,-3.3608,-3.3655,-3.37,-3.3712,-3.375,-3.3753,-3.3816,-3.3781,-3.3868,-3.3828,-3.3856,-3.3873,-3.3876,-3.3883,-3.3843,-3.3908,-3.4023,-3.4035,-3.3889,-3.3887,-3.3886,0,-3.3339,-3.3431,-3.3505,-3.353,-3.359,-3.3624,-3.365,-3.3693,-3.3727,-3.3775,-3.3797,-3.3851,-3.3881,-3.3922,-3.3939,-3.3912,-3.4025,-3.3991,-3.4036,-3.4036,-3.4059,-3.4058,-3.418,-3.4079,-3.4079,-3.4078,-3.4078,0,-3.3436,-3.35,-3.3533,-3.3579,-3.3649,-3.3667,-3.3736,-3.3761,-3.3799,-3.3848,-3.385,-3.3896,-3.3917,-3.3966,-3.398,-3.4049,-3.4062,-3.4073,-3.4076,-3.4073,-3.4072,-3.4092,-3.4086,-3.4082,-3.4081,-3.408,-3.408,0,-3.3516,-3.3541,-3.3622,-3.3672,-3.3686,-3.3735,-3.3778,-3.3821,-3.3842,-3.3904,-3.392,-3.3952,-3.401,-3.4031,-3.4101,-3.4111,-3.4191,-3.4189,-3.4176,-3.4177,-3.422,-3.4215,-3.4359,-3.4378,-3.4265,-3.4266,-3.4267,0,-3.3576,-3.3625,-3.3681,-3.3715,-3.3742,-3.3796,-3.3832,-3.385,-3.3887,-3.3942,-3.3978,-3.4036,-3.4083,-3.4175,-3.4204,-3.4257,-3.4256,-3.4303,-3.4264,-3.426,-3.4256,-3.4253,-3.4258,-3.431,-3.4311,-3.4312,-3.4313,0,-3.3681,-3.3691,-3.3742,-3.3798,-3.384,-3.3884,-3.3927,-3.3955,-3.398,-3.402,-3.408,-3.4117,-3.4188,-3.4245,-3.43,-3.4326,-3.4323,-3.4325,-3.4338,-3.4335,-3.4325,-3.433,-3.4195,-3.4321,-3.4321,-3.432,-3.4319,-3.4319,-3.3752,-3.3796,-3.3841,-3.3898,-3.3933,-3.3973,-3.4016,-3.4043,-3.4093,-3.4154,-3.4162,-3.4225,-3.4268,-3.4342,-3.437,-3.4419,-3.4407,-3.4426,-3.443,-3.4435,-3.4438,-3.4318,-3.4429,-3.4429,-3.4429,-3.4429,-3.4428,0,-3.3857,-3.3886,-3.3938,-3.3999,-3.4043,-3.4038,-3.4086,-3.4123,-3.4179,-3.422,-3.4267,-3.4335,-3.439,-3.4423,-3.4478,-3.4511,-3.4512,-3.4525,-3.4523,-3.4528,-3.4446,-3.4429,-3.4524,-3.4524,-3.4524,-3.4524,-3.4524,-3.4524,-3.3916,-3.3989,-3.4004,-3.4093,-3.4122,-3.4185,-3.4213,-3.4249,-3.4282,-3.4358,-3.4405,-3.4426,-3.4464,-3.4522,-3.4572,-3.458,-3.46,-3.4615,-3.4622,-3.4544,-3.4534,-3.4525,-3.4509,-3.4619,-3.4619,-3.47,-3.4701,-3.4701]}]]